Powrót do katalogu

ONEWEB-0172

AktywnyŁącznośćPO
NORAD 48071·PAYLOAD·🇬🇧 United Kingdom

Wystrzelony Mar 25, 2021 z Vostochny Cosmodrome

Loading…

Następne Przeloty (najbliższe 24 godziny)

TLE

ŚwieżeSource: CelesTrak SupGP

Epoka: Sep 14, 2026, 07:14 UTC

1 48071C 21025AF  26257.30155507 -.00002315  00000+0 -63477-2 0  2576
2 48071  87.8921 302.4972 0001794  92.5777  18.3111 13.13471705    10

Śledź ONEWEB-0172 w czasie rzeczywistym z AllMySat

Download on the App Store